SHT5W EGAC-EGLL

Flight info

Callsign SHT5W
Flight time N/A
Altitude 33000
Route DUFFY L10 RINGA Q39 BABGU DCT ETIGA DCT INKOB Q39 NOMSU UQ4 WAL UY53 NUGRA
Aircraft A320/M-SDE3FGHIRWY/LB1

Departure

Time 2026-04-26 12:02
Airport George Best Belfast City Airport (EGAC)

Arrival

Time N/A
Airport London Heathrow Airport (EGLL)
Time Latitude Longitude Altitude Speed Heading
2026-04-26 11:35 54.61499 -5.87145 23 ft 0 kts 156°
2026-04-26 11:57 54.61510 -5.87153 23 ft 4 kts 157°
2026-04-26 11:57 54.61535 -5.87169 23 ft 4 kts 165°
2026-04-26 11:57 54.61558 -5.87176 23 ft 2 kts 178°
2026-04-26 11:57 54.61582 -5.87171 22 ft 4 kts 216°
2026-04-26 11:58 54.61600 -5.87141 22 ft 3 kts 215°
2026-04-26 11:58 54.61603 -5.87137 23 ft 0 kts 213°
2026-04-26 11:59 54.61594 -5.87147 22 ft 5 kts 214°
2026-04-26 12:00 54.61536 -5.87217 22 ft 13 kts 214°
2026-04-26 12:00 54.61445 -5.87326 21 ft 18 kts 216°
2026-04-26 12:00 54.61350 -5.87484 21 ft 20 kts 213°
2026-04-26 12:00 54.61224 -5.87636 16 ft 24 kts 215°
2026-04-26 12:01 54.61091 -5.87800 19 ft 17 kts 226°
2026-04-26 12:01 54.61115 -5.87977 18 ft 12 kts 306°
2026-04-26 12:01 54.61186 -5.88000 18 ft 10 kts 33°
2026-04-26 12:01 54.61224 -5.87954 17 ft 33 kts 35°
2026-04-26 12:02 54.61670 -5.87422 18 ft 117 kts 34°
2026-04-26 12:02 54.62194 -5.86797 104 ft 148 kts 33°
2026-04-26 12:02 54.63314 -5.85522 1101 ft 149 kts 33°
2026-04-26 12:02 54.64241 -5.84532 1494 ft 168 kts 33°
2026-04-26 12:03 54.65322 -5.83417 1661 ft 194 kts 32°
2026-04-26 12:03 54.66558 -5.82139 1927 ft 220 kts 32°
2026-04-26 12:03 54.67941 -5.80692 2328 ft 244 kts 31°
2026-04-26 12:03 54.69446 -5.79080 2901 ft 261 kts 31°
2026-04-26 12:04 54.70995 -5.77378 3784 ft 266 kts 32°
2026-04-26 12:04 54.72467 -5.75401 4659 ft 272 kts 49°
2026-04-26 12:04 54.73387 -5.72530 5494 ft 277 kts 76°
2026-04-26 12:04 54.73493 -5.69260 6333 ft 277 kts 103°
2026-04-26 12:05 54.72754 -5.66222 7143 ft 275 kts 130°
2026-04-26 12:05 54.71341 -5.64062 7943 ft 272 kts 155°
2026-04-26 12:05 54.69546 -5.63159 8753 ft 269 kts 180°
2026-04-26 12:05 54.67711 -5.63664 9581 ft 269 kts 204°
2026-04-26 12:06 54.66141 -5.65415 10371 ft 270 kts 219°
2026-04-26 12:06 54.65162 -5.66800 10641 ft 283 kts 219°